Погода в Вичуге

Россия / Ивановская область     57°13′01″N   41°55′05″E
темп.,
°C
ветер,
м/с
пор.,
м/с
влажн.,
%
обл.,
%
осадки,
мм/ч
давл.,
гПа
погр.,
м
27 октября, ср
ср2700:00+1юз4118682 0.0 1016376
03:00+1юз4118895 0.0 1015333
06:00+1юз41091100 0.0 1014303
09:00+2юз51187100 0.0 1012425
12:00+4юз51276100 0.0 1011603
15:00+4юз61375100 0.0 1009726
18:00+4зюз61296100 1.4 1008928
21:00+5з61391100 1.4 1008803
28 октября, чт
чт2800:00+6з61287100 0.1 1009831
03:00+5з51087100 0.2 1009863
06:00+4зюз4990100 0.1 1009407
09:00+4юз3890100 0.1 1009355
12:00+4ююз1595100 1.6 1009692
15:00+4ссв2397100 3.2 1010377
18:00+4с3892100 0.1 1014564
21:00+4с488998 0.3 1018549
29 октября, пт
пт2900:000ссв48875 0.0 1022400
03:00−2св25888 0.0 1025231
06:00−2в2381100 0.0 1027173
09:00−1ю347198 0.0 1028264
12:00+2ююз4658100 0.0 1027449
15:00+3ююз51176100 0.1 1025625
18:00+5юз61585100 0.2 1023694
21:00+6зюз61483100 0.2 1023612
30 октября, сб
сб3000:00+5зюз6159226 0.0 1022441
03:00+5зюз5159645 0.0 1023408
06:00+6зюз61496100 0.0 1023463
09:00+8зюз51391100 0.0 1024548
12:00+10з5128438 0.0 1024583
15:00+10зюз5128331 0.0 1024581
18:00+8зюз4129237 0.0 1025386
21:00+7зюз411925 0.0 1026306
31 октября, вс
вс3100:00+5зюз4108999 0.0 1026233
03:00+4юз4108777 0.0 1026218
06:00+4юз4118963 0.0 1026245
09:00+4юз5128648 0.0 1025341
12:00+8зюз5117432 0.0 1025488
15:00+9юз5117637 0.0 1024526
18:00+6юз4118838 0.0 1025298
21:00+5юз3109257 0.0 1025219